Weather History for KBED - January, 2014

Change the Weather History Date:

Saturday, January 18, 2014

  Actual Average Record
Temperature  
Mean Temperature 30 °F -  
Max Temperature 33 °F 33 °F 61 °F (1973)
Min Temperature 28 °F 11 °F -12 °F (1974)
Degree Days  
Heating Degree Days 34    
Moisture  
Dew Point 31 °F    
Average Humidity 97    
Maximum Humidity 100    
Minimum Humidity 82    
Precipitation  
Precipitation 0.54 in - - ()
Sea Level Pressure  
Sea Level Pressure 29.73 in    
Wind  
Wind Speed 3 mph (NNW)    
Max Wind Speed 8 mph    
Max Gust Speed -    
Visibility 3 miles    
Events Fog , Rain , Snow    
Averages and records for this station are not official NWS values.
T = Trace of Precipitation, MM = Missing Value Source: NWS Daily Summary

Daily Weather History Graph

Daily Weather History Graph

Search for Another Location

Airport or City:

Trip Planner

Search our weather history database for the weather conditions in past years. The results will help you decide how hot, cold, wet, or windy it might be!

Date:

Astronomy

Jan. 18, 2014 Rise Set
Actual Time 7:10 AM EST 4:41 PM EST
Civil Twilight 6:39 AM EST 5:12 PM EST
Nautical Twilight 6:05 AM EST 5:46 PM EST
Astronomical Twilight 5:31 AM EST 6:20 PM EST
Moon 7:24 PM EST (1/18) 8:04 AM EST (1/18)
Length of Visible Light 10h 32m
Length of Day
9h 30m
Waning Gibbous, 94% of the Moon is Illuminated
Jan 18
Waning Gibbous
Jan 24
Last Quarter
Jan 30
New
Feb 6
First Quarter
Feb 14
Full

Hourly Weather History & Observations

Time (EST) Temp. Windchill Dew Point Humidity Pressure Visibility Wind Dir Wind Speed Gust Speed Precip Events Conditions
12:56 AM 28.9 °F 25.2 °F 25.0 °F 85% 29.94 in 10.0 mi East 3.5 mph - N/A   Partly Cloudy
1:56 AM 30.9 °F - 26.1 °F 82% 29.94 in 9.0 mi Calm Calm - N/A   Overcast
2:56 AM 30.0 °F - 27.0 °F 88% 29.94 in 9.0 mi Calm Calm - N/A   Overcast
3:56 AM 30.0 °F - 28.0 °F 92% 29.91 in 9.0 mi Calm Calm - N/A   Overcast
4:56 AM 30.0 °F - 28.0 °F 92% 29.91 in 9.0 mi Calm Calm - N/A   Overcast
5:56 AM 30.0 °F - 28.0 °F 92% 29.88 in 8.0 mi Calm Calm - N/A   Overcast
6:56 AM 30.0 °F - 28.9 °F 96% 29.87 in 8.0 mi Calm Calm - N/A   Overcast
7:56 AM 30.0 °F - 28.9 °F 96% 29.83 in 5.0 mi Calm Calm - 0.00 in   Mostly Cloudy
8:56 AM 32.0 °F - 30.0 °F 92% 29.82 in 5.0 mi Calm Calm - N/A   Overcast
9:39 AM 32.0 °F 28.7 °F 30.2 °F 93% 29.79 in 5.0 mi WNW 3.5 mph - N/A   Overcast
9:56 AM 33.1 °F - 30.9 °F 92% 29.83 in 3.0 mi Calm Calm - 0.00 in Rain Light Rain
10:06 AM 32.0 °F - 30.2 °F 93% 29.78 in 1.8 mi Calm Calm - 0.01 in Rain Light Rain
10:56 AM 32.0 °F 28.7 °F 32.0 °F 100% 29.79 in 0.8 mi NW 3.5 mph - 0.07 in Snow Light Snow
11:41 AM 32.0 °F 26.4 °F 32.0 °F 100% 29.70 in 0.2 mi NNW 5.8 mph - 0.10 in Fog , Snow Snow
11:56 AM 32.0 °F 27.5 °F 32.0 °F 100% 29.74 in 0.2 mi NNW 4.6 mph - 0.13 in Fog , Snow Snow
12:52 PM 32.0 °F 27.5 °F 32.0 °F 100% 29.64 in 0.2 mi NNE 4.6 mph - 0.16 in Fog , Snow Heavy Snow
12:56 PM 32.0 °F 27.5 °F 32.0 °F 100% 29.69 in 0.2 mi NNE 4.6 mph - 0.17 in Fog , Snow Snow
1:45 PM 32.0 °F 27.5 °F 32.0 °F 100% 29.63 in 0.5 mi North 4.6 mph - 0.08 in Fog , Snow Snow
1:56 PM 32.0 °F 28.7 °F 32.0 °F 100% 29.68 in 0.5 mi North 3.5 mph - 0.09 in Fog , Snow Snow
2:09 PM 32.0 °F 27.5 °F 32.0 °F 100% 29.62 in 0.2 mi North 4.6 mph - 0.02 in Fog , Snow Snow
2:29 PM 32.0 °F 27.5 °F 32.0 °F 100% 29.62 in 0.5 mi North 4.6 mph - 0.04 in Fog , Snow Snow
2:39 PM 32.0 °F 26.4 °F 32.0 °F 100% 29.62 in 0.8 mi North 5.8 mph - 0.05 in Snow Light Snow
2:56 PM 32.0 °F 26.4 °F 32.0 °F 100% 29.67 in 0.5 mi North 5.8 mph - 0.06 in Fog , Snow Snow
3:03 PM 32.0 °F 26.4 °F 32.0 °F 100% 29.61 in 0.8 mi North 5.8 mph - 0.01 in Snow Light Snow
3:15 PM 32.0 °F 27.5 °F 32.0 °F 100% 29.61 in 1.2 mi North 4.6 mph - 0.01 in Snow Light Snow
3:44 PM 33.8 °F 28.6 °F 32.0 °F 93% 29.62 in 2.5 mi NNW 5.8 mph - 0.01 in Snow Light Snow
3:56 PM 33.1 °F 27.7 °F 32.0 °F 96% 29.67 in 4.0 mi NNW 5.8 mph - 0.01 in   Overcast
4:56 PM 32.0 °F 27.5 °F 32.0 °F 100% 29.67 in 3.0 mi North 4.6 mph - N/A   Overcast
5:14 PM 32.0 °F 26.4 °F 32.0 °F 100% 29.62 in 2.0 mi NNW 5.8 mph - N/A   Overcast
5:56 PM 32.0 °F 26.4 °F 32.0 °F 100% 29.68 in 2.0 mi NNW 5.8 mph - N/A   Overcast
6:03 PM 32.0 °F 26.4 °F 32.0 °F 100% 29.63 in 8.0 mi NNW 5.8 mph - N/A   Overcast
6:56 PM 32.0 °F 26.4 °F 32.0 °F 100% 29.68 in 6.0 mi NNW 5.8 mph - N/A   Overcast
7:56 PM 32.0 °F 24.8 °F 32.0 °F 100% 29.70 in 5.0 mi WNW 8.1 mph - N/A   Overcast
8:10 PM 32.0 °F 27.5 °F 32.0 °F 100% 29.65 in 2.0 mi NW 4.6 mph - 0.00 in Snow Light Snow
8:14 PM 32.0 °F 26.4 °F 32.0 °F 100% 29.65 in 1.8 mi NW 5.8 mph - 0.00 in Snow Light Snow
8:56 PM 32.0 °F 26.4 °F 32.0 °F 100% 29.70 in 1.8 mi WNW 5.8 mph - 0.00 in Snow Light Snow
9:03 PM 32.0 °F 26.4 °F 32.0 °F 100% 29.66 in 2.0 mi WNW 5.8 mph - 0.00 in Snow Light Snow
9:21 PM 32.0 °F 26.4 °F 30.2 °F 93% 29.66 in 4.0 mi NW 5.8 mph - 0.00 in   Overcast
9:56 PM 32.0 °F 26.4 °F 30.9 °F 96% 29.73 in 4.0 mi NW 5.8 mph - 0.00 in   Overcast
10:56 PM 30.9 °F 25.2 °F 30.9 °F 100% 29.74 in 1.2 mi WNW 5.8 mph - 0.01 in Snow Light Snow
11:56 PM 30.9 °F 25.2 °F 30.0 °F 96% 29.73 in 1.2 mi WNW 5.8 mph - 0.00 in Snow Light Snow